Zurück zum Katalog

FALCON 9 R/B

AktivGTO
NORAD 43179·ROCKET BODY·🇺🇸 United States

Gestartet Jan 31, 2018 von Cape Canaveral Space Force Station

Loading…

TLE

AlterndSource: Space-Track

Epoche: Sep 14, 2026, 16:41 UTC

1 43179U 18013B   26257.69582791  .00018431  79789-6  10299-2 0  9992
2 43179  23.9051  64.6892 7156029 349.4936   1.1027  2.47413204 56660

Verfolge FALCON 9 R/B in Echtzeit mit AllMySat

Download on the App Store